Location: Unspecified
(0.0000°N, 0.0000°E)
Time: 19:31:09
(UTC+00:00)

Vanguard 1 Rocket - Pass Details

Date: 20 April 2026
Orbit: 655 x 4212 km, 34.3° (Epoch: 17 May)

Event Time Altitude Azimuth Distance (km) Brightness Sun altitude
Rises 18:25:42 0° 246° (WSW) 5,675 12.4 -6.6°
Reaches altitude 10° 18:28:47 10° 249° (WSW) 5,040 12.2 -7.3°
Maximum altitude 18:44:58 62° 326° (NW) 3,849 10.7 -11.3°
Drops below altitude 10° 19:10:34 10° 43° (NE) 7,395 11.7 -17.5°
Sets 19:16:31 0° 47° (NE) 8,323 12.0 -19.0°
